Location: Indian Hills
(32.9760°N, 85.9450°W)
Time: 21:16:26
(UTC+00:00)

FENGYUN 3A - Pass Details

Date: 09 December 2019
Orbit: 823 x 837 km, 98.4° (Epoch: 25 January)

Event Time Altitude Azimuth Distance (km) Brightness Sun altitude
Rises 10:45:44 0° 17° (NNE) 3,368 6.9 -22.3°
Reaches altitude 10° 10:48:08 10° 21° (NNE) 2,430 6.2 -21.8°
Maximum altitude 10:53:27 61° 101° (E) 935 4.2 -20.7°
Drops below altitude 10° 10:58:43 10° 181° (S) 2,412 6.2 -19.6°
Sets 11:01:05 0° 185° (S) 3,341 6.9 -19.2°
